Location: Zilina
(0.0000°N, 18.7333°E)
Time: 23:19:00
(UTC+01:00)

Ariane H10+ - Pass Details

Date: 19 February 2019
Orbit: 611 x 36778 km, 3.8° (Epoch: 17 March)

Event Time Altitude Azimuth Distance (km) Brightness Sun altitude
Rises 17:24:08 0° 274° (W) 24,574 11.9 8.5°
Reaches altitude 10° 18:19:57 10° 273° (W) 11,198 10.0 -5.2°
Maximum altitude 18:45:57 81° 186° (S) 1,423 3.9 -11.5°
Enters shadow 18:50:08 15° 99° (E) 2,153 4.2 -12.6°
